Weather History for Coffeyville, KS

Change the Weather History Date:

Wednesday, January 2, 2013

  Actual Average Record
Temperature  
Mean Temperature 26 °F -  
Max Temperature 39 °F 43 °F 73 °F (1997)
Min Temperature 12 °F 24 °F -8 °F (2001)
Degree Days  
Heating Degree Days 40    
Moisture  
Dew Point 20 °F    
Average Humidity 77    
Maximum Humidity 88    
Minimum Humidity 60    
Precipitation  
Precipitation 0.00 in - - ()
Sea Level Pressure  
Sea Level Pressure 30.28 in    
Wind  
Wind Speed 4 mph (WSW)    
Max Wind Speed 12 mph    
Max Gust Speed -    
Visibility 10 miles    
Events      
Averages and records for this station are not official NWS values.
T = Trace of Precipitation, MM = Missing Value Source: NWS Daily Summary

Daily Weather History Graph

Daily Weather History Graph

Search for Another Location

Airport:

Trip Planner

Search our weather history database for the weather conditions in past years. The results will help you decide how hot, cold, wet, or windy it might be!

Date:

Astronomy

Jan. 02, 2013 Rise Set
Actual Time 7:36 AM CST 5:17 PM CST
Civil Twilight 7:07 AM CST 5:46 PM CST
Nautical Twilight 6:34 AM CST 6:18 PM CST
Astronomical Twilight 6:03 AM CST 6:50 PM CST
Moon 10:42 PM CST (1/2) 10:25 AM CST (1/2)
Length of Visible Light 10h 38m
Length of Day
9h 41m
Waning Gibbous, 75% of the Moon is Illuminated
Jan 2
Waning Gibbous
Jan 4
Last Quarter
Jan 11
New
Jan 18
First Quarter
Jan 26
Full

Hourly Weather History & Observations

Time (CST) Temp. Windchill Dew Point Humidity Pressure Visibility Wind Dir Wind Speed Gust Speed Precip Events Conditions
12:52 AM 18.0 °F - 15.1 °F 88% 30.32 in 10.0 mi Calm Calm - N/A   Clear
1:52 AM 16.0 °F - 12.9 °F 88% 30.33 in 9.0 mi Calm Calm - N/A   Clear
2:52 AM 16.0 °F - 12.0 °F 84% 30.34 in 10.0 mi Calm Calm - N/A   Clear
3:52 AM 14.0 °F - 10.9 °F 88% 30.31 in 9.0 mi Calm Calm - N/A   Clear
4:52 AM 14.0 °F - 10.9 °F 88% 30.31 in 10.0 mi Calm Calm - N/A   Clear
5:52 AM 12.9 °F 6.9 °F 10.0 °F 88% 30.30 in 9.0 mi South 3.5 mph - N/A   Clear
6:52 AM 14.0 °F 8.2 °F 10.9 °F 88% 30.31 in 8.0 mi SSW 3.5 mph - N/A   Clear
7:52 AM 15.1 °F 6.4 °F 12.0 °F 88% 30.29 in 7.0 mi South 5.8 mph - N/A   Clear
9:52 AM 25.0 °F 16.3 °F 19.9 °F 81% 30.31 in 10.0 mi South 8.1 mph - N/A   Clear
10:52 AM 30.0 °F 20.5 °F 21.9 °F 72% 30.31 in 10.0 mi SW 11.5 mph - N/A   Clear
11:52 AM 33.1 °F 25.5 °F 25.0 °F 72% 30.27 in 10.0 mi SW 9.2 mph - N/A   Clear
12:52 PM 36.0 °F 29.0 °F 26.1 °F 67% 30.22 in 10.0 mi South 9.2 mph - N/A   Clear
1:52 PM 37.9 °F 30.9 °F 25.0 °F 60% 30.20 in 10.0 mi SW 10.4 mph - N/A   Clear
2:52 PM 37.9 °F 31.5 °F 26.1 °F 62% 30.20 in 10.0 mi WSW 9.2 mph - N/A   Clear
3:52 PM 39.0 °F 32.3 °F 27.0 °F 62% 30.21 in 10.0 mi SW 10.4 mph - N/A   Clear
4:52 PM 37.0 °F 32.4 °F 26.1 °F 65% 30.22 in 10.0 mi SW 5.8 mph - N/A   Clear
5:52 PM 36.0 °F 32.1 °F 26.1 °F 67% 30.24 in 10.0 mi SW 4.6 mph - N/A   Scattered Clouds
6:52 PM 33.1 °F 27.7 °F 24.1 °F 70% 30.26 in 10.0 mi WNW 5.8 mph - N/A   Clear
7:52 PM 30.9 °F 25.2 °F 23.0 °F 72% 30.28 in 10.0 mi WNW 5.8 mph - N/A   Clear
8:52 PM 28.9 °F 21.1 °F 21.9 °F 75% 30.30 in 10.0 mi NW 8.1 mph - N/A   Clear
9:52 PM 28.0 °F 21.7 °F 21.9 °F 78% 30.32 in 10.0 mi NNW 5.8 mph - N/A   Clear
10:52 PM 27.0 °F 19.5 °F 21.0 °F 78% 30.33 in 10.0 mi NW 6.9 mph - N/A   Clear
11:52 PM 25.0 °F 18.1 °F 21.9 °F 88% 30.33 in 10.0 mi NW 5.8 mph - N/A   Clear